[[{"header":{"parameterUnit":"m.s-1","parameterCategory":1,"la1":30.2991,"la2":30.254,"lo1":-89.0895,"lo2":-89.0444,"dy":0.0017,"dx":0.0017,"nx":28,"ny":28,"refTime":"2024-02-14T09:00:00:Z","depth":0,"parameterNumber":2,"parameterNumberName":"U-component_of_WINDS"},"data":[0,0,0,0,0,0,0,0,0,0,0,0,0,0,0,0,0,0,0,0,0,0,0,0,0,0,0,0,0,0,0,0,0,0,0,0,0,0,0,0,0,0,0,0,0,0,0,0,0,0,0,0,0,0,0,0,0,0,0.3071,0.3072,0,0.3181,0.3182,0.3184,0.318,0.3178,0.3177,0.3175,0.3288,0.3292,0.3296,0,0,0,0,0,0,0,0,0,0,0,0,0,0.2858,0.2862,0.3071,0.3072,0.3074,0.3181,0.3183,0.3184,0.318,0.3178,0.3176,0.3175,0.3286,0.3291,0.3297,0,0,0,0,0,0,0,0,0,0,0,0,0,0.2958,0.2863,0.3071,0.3085,0.3087,0.3181,0.3183,0.3184,0.3181,0.3178,0.3176,0.3174,0.3284,0.3291,0.3297,0.3384,0,0,0.3318,0.332,0,0,0,0,0,0,0,0,0.2952,0.2965,0.3081,0.3084,0.3087,0.3164,0.3149,0.3251,0.3181,0.3145,0.3175,0.3173,0.3248,0.3258,0.3284,0.3389,0.3394,0.3318,0.3322,0.3325,0.3327,0,0,0,0,0,0,0,0.2945,0.2961,0.3115,0.3083,0.3086,0.3086,0.3097,0.3168,0.3208,0.3148,0.3148,0.3161,0.3249,0.3277,0.3286,0.3396,0.3318,0.3324,0.3328,0.3331,0.3579,0.3582,0,0,0,0,0,0,0.2935,0.2955,0.3111,0.3118,0.3012,0.3092,0.3104,0.3142,0.3207,0.3215,0.3163,0.3161,0.3267,0.3278,0.329,0.3396,0.3325,0.3331,0.3335,0.3577,0.358,0.3583,0,0,0,0,0,0,0.2931,0.2949,0.3107,0.3037,0.3057,0.3098,0.314,0.3145,0.3173,0.3219,0.3226,0.3184,0.3266,0.3281,0.3361,0.34,0.3334,0.334,0.3573,0.3578,0.3581,0.3609,0,0,0,0,0,0,0.2925,0.2948,0.2981,0.3037,0.306,0.3176,0.3142,0.3149,0.3184,0.3182,0.324,0.3248,0.3265,0.3351,0.3368,0.3408,0.3345,0.357,0.3575,0.358,0.3605,0.3614,0.3621,0,0,0,0,0,0.2917,0.2984,0.2982,0.3001,0.3103,0.3178,0.3191,0.321,0.3188,0.3221,0.3251,0.3246,0.3393,0.3359,0.3378,0.3421,0.3568,0.3574,0.358,0.3602,0.3612,0.3621,0,0,0,0,0,0,0.293,0.2991,0.299,0.3078,0.3123,0.3177,0.322,0.322,0.3272,0.3268,0.3289,0.3302,0.3383,0.341,0.3371,0.3509,0.3478,0.3488,0.3488,0.3499,0.3506,0.3498,0.3351,0,0,0,0,0,0.2943,0.2999,0.305,0.3122,0.3145,0.3179,0.3212,0.3223,0.327,0.3289,0.3325,0.3371,0.3428,0.3465,0.3519,0.3609,0.3622,0.3648,0.3656,0.3663,0.3671,0.3721,0.3733,0.3602,0.3602,0.3602,0,0,0.2971,0.3011,0.3045,0.3126,0.3162,0.322,0.3195,0.3257,0.33,0.3299,0.3377,0.3405,0.3457,0.3543,0.3582,0.3568,0.371,0.367,0.3675,0.368,0.3728,0.3741,0.3752,0.3606,0.3605,0.3605,0,0,0.3051,0.3087,0.3151,0.3188,0.3244,0.3266,0.3282,0.3337,0.3355,0.3434,0.3434,0.3486,0.3584,0.3622,0.3654,0.3749,0.3747,0.3767,0.3809,0.3858,0.3868,0.3877,0.3912,0.3924,0.3775,0.3775,0.3775,0,0.3078,0.3165,0.3184,0.3247,0.3283,0.3285,0.3351,0.3386,0.3456,0.3481,0.3464,0.3587,0.3622,0.3717,0.3741,0.3767,0.3785,0.376,0.3865,0.3874,0.3883,0.3916,0.3929,0.3777,0.3777,0.3777,0.3776,0,0.3196,0.3256,0.3302,0.337,0.3411,0.3475,0.3505,0.3544,0.3551,0.3576,0.3656,0.3699,0.3763,0.3787,0.3794,0.3883,0.3873,0.386,0.3829,0.3898,0.3929,0.3942,0.378,0.3779,0.3779,0.3778,0,0,0.3286,0.3365,0.3382,0.3413,0.3475,0.3523,0.3587,0.365,0.3683,0.3732,0.3787,0.387,0.3859,0.3896,0.3908,0.3951,0.4024,0.3933,0.3934,0.3948,0.4126,0.4135,0.4149,0.4023,0.4026,0.4028,0.4121,0,0.3372,0.3487,0.3507,0.3607,0.3663,0.3667,0.3723,0.3768,0.3793,0.3844,0.3872,0.393,0.3911,0.3933,0.3976,0.4006,0.406,0.4,0.4074,0.4077,0.4061,0.4165,0.4175,0.4261,0.4134,0.4136,0.4137,0,0.3488,0.354,0.3646,0.3702,0.3726,0.3777,0.3837,0.3886,0.3937,0.3952,0.3993,0.4001,0.4068,0.4035,0.4128,0.4087,0.4118,0.4138,0.4142,0.4149,0.4111,0.4176,0.4289,0.4302,0.4157,0.4155,0.4154,0,0.3543,0.3641,0.3717,0.3744,0.381,0.3846,0.3875,0.3923,0.396,0.4013,0.4037,0.4097,0.4129,0.4175,0.4199,0.4172,0.4291,0.4259,0.4305,0.4305,0.433,0.4328,0.445,0.4351,0.435,0.435,0.435,0,0.3637,0.3702,0.3743,0.379,0.3863,0.3885,0.3957,0.3986,0.4029,0.4082,0.4088,0.4138,0.4166,0.422,0.4238,0.4313,0.4328,0.4342,0.4346,0.4341,0.434,0.4362,0.4357,0.4354,0.4353,0.4352,0.4352,0,0.3711,0.3741,0.3824,0.3881,0.3897,0.3948,0.3997,0.4043,0.4068,0.4134,0.4151,0.4191,0.4254,0.4283,0.4361,0.4374,0.4459,0.4459,0.4442,0.4443,0.4488,0.4484,0.4628,0.4649,0.4536,0.4537,0.4538,0,0.3769,0.3819,0.3882,0.3918,0.3948,0.4006,0.4044,0.4069,0.4109,0.4171,0.4209,0.4273,0.4325,0.4427,0.4462,0.4523,0.4524,0.4571,0.4533,0.4527,0.4525,0.4521,0.4527,0.4577,0.4578,0.4579,0.458,0,0.3869,0.3882,0.3936,0.3997,0.4043,0.4092,0.4139,0.4168,0.4201,0.4245,0.431,0.4351,0.4431,0.4495,0.4557,0.4588,0.459,0.4592,0.4606,0.4601,0.4589,0.4596,0.4461,0.4588,0.4587,0.4587,0.4586,0.4586,0.3937,0.3982,0.4033,0.4094,0.4133,0.4178,0.4224,0.4256,0.4311,0.4379,0.439,0.446,0.451,0.4595,0.4627,0.4682,0.4671,0.4691,0.4696,0.4701,0.4703,0.4581,0.4694,0.4694,0.4693,0.4693,0.4693,0,0.4037,0.4071,0.4127,0.4194,0.4243,0.4241,0.4294,0.4335,0.4396,0.4443,0.4495,0.4571,0.4632,0.4673,0.4736,0.4772,0.4775,0.4788,0.4785,0.4792,0.471,0.4692,0.4785,0.4785,0.4785,0.4785,0.4785,0.4785,0.4095,0.4171,0.419,0.4286,0.432,0.4388,0.4419,0.4461,0.4498,0.4583,0.4634,0.4661,0.4706,0.4772,0.4829,0.484,0.4862,0.4876,0.4886,0.4808,0.4798,0.4789,0.4772,0.4881,0.4881,0.4964,0.4965,0.4965]},{"header":{"parameterUnit":"m.s-1","parameterCategory":1,"la1":30.2991,"la2":30.254,"lo1":-89.0895,"lo2":-89.0444,"dy":0.0017,"dx":0.0017,"nx":28,"ny":28,"refTime":"2024-02-14T09:00:00:Z","depth":0,"parameterNumber":3,"parameterNumberName":"V-component_of_WINDS"},"data":[0,0,0,0,0,0,0,0,0,0,0,0,0,0,0,0,0,0,0,0,0,0,0,0,0,0,0,0,0,0,0,0,0,0,0,0,0,0,0,0,0,0,0,0,0,0,0,0,0,0,0,0,0,0,0,0,0,0,-0.1983,-0.1982,0,-0.1862,-0.1861,-0.1859,-0.1853,-0.1855,-0.1856,-0.1858,-0.1733,-0.1728,-0.1724,0,0,0,0,0,0,0,0,0,0,0,0,0,-0.2208,-0.2204,-0.1983,-0.1982,-0.198,-0.1862,-0.1861,-0.1859,-0.1853,-0.1855,-0.1857,-0.1858,-0.1734,-0.1729,-0.1723,0,0,0,0,0,0,0,0,0,0,0,0,0,-0.2101,-0.2202,-0.1983,-0.1963,-0.196,-0.1863,-0.1861,-0.1859,-0.1853,-0.1855,-0.1857,-0.1859,-0.1736,-0.1729,-0.1723,-0.1637,0,0,-0.1701,-0.1698,0,0,0,0,0,0,0,0,-0.2107,-0.2093,-0.1967,-0.1964,-0.1961,-0.1875,-0.1894,-0.1784,-0.1852,-0.1893,-0.1858,-0.186,-0.1778,-0.1768,-0.1741,-0.1631,-0.1626,-0.1701,-0.1697,-0.1694,-0.1692,0,0,0,0,0,0,0,-0.2114,-0.2098,-0.1935,-0.1966,-0.1961,-0.1959,-0.1947,-0.1873,-0.1825,-0.189,-0.1889,-0.1875,-0.1777,-0.1747,-0.1738,-0.1624,-0.1701,-0.1695,-0.169,-0.1688,-0.1438,-0.1435,0,0,0,0,0,0,-0.2126,-0.2104,-0.1939,-0.1932,-0.2041,-0.1954,-0.1939,-0.19,-0.1826,-0.1817,-0.1873,-0.1875,-0.1758,-0.1746,-0.1733,-0.1627,-0.1694,-0.1687,-0.1683,-0.144,-0.1437,-0.1434,0,0,0,0,0,0,-0.2131,-0.2111,-0.1944,-0.2017,-0.1996,-0.1948,-0.1904,-0.1897,-0.1867,-0.1814,-0.1805,-0.1852,-0.1759,-0.1743,-0.1661,-0.1623,-0.1684,-0.1678,-0.1443,-0.1439,-0.1436,-0.1416,0,0,0,0,0,0,-0.2137,-0.2113,-0.208,-0.2017,-0.1992,-0.1874,-0.1902,-0.1893,-0.1855,-0.1857,-0.1791,-0.1783,-0.176,-0.1671,-0.1654,-0.1615,-0.1672,-0.1446,-0.1441,-0.1437,-0.1419,-0.1412,-0.1405,0,0,0,0,0,-0.2145,-0.2079,-0.2079,-0.2059,-0.195,-0.1872,-0.1857,-0.1833,-0.1852,-0.1819,-0.1784,-0.1785,-0.163,-0.1663,-0.1643,-0.1601,-0.1448,-0.1443,-0.1437,-0.1423,-0.1413,-0.1405,0,0,0,0,0,0,-0.2139,-0.2071,-0.2069,-0.1981,-0.1932,-0.1871,-0.1828,-0.1824,-0.1768,-0.1772,-0.1743,-0.1729,-0.1647,-0.1616,-0.1654,-0.1514,-0.1542,-0.1532,-0.1537,-0.1528,-0.1521,-0.1529,-0.1666,0,0,0,0,0,-0.2128,-0.207,-0.2013,-0.1941,-0.1916,-0.1876,-0.1841,-0.1826,-0.1775,-0.1754,-0.1713,-0.1663,-0.1603,-0.1564,-0.1506,-0.1416,-0.1401,-0.1377,-0.137,-0.1364,-0.1356,-0.1305,-0.1293,-0.1416,-0.1416,-0.1416,0,0,-0.2103,-0.2059,-0.2024,-0.1938,-0.1899,-0.1839,-0.1859,-0.1795,-0.175,-0.1744,-0.1663,-0.1632,-0.1574,-0.1487,-0.1447,-0.1459,-0.1319,-0.1357,-0.1353,-0.1347,-0.1298,-0.1286,-0.1276,-0.1412,-0.1413,-0.1414,0,0,-0.2028,-0.1989,-0.1924,-0.1884,-0.1824,-0.1797,-0.1782,-0.1721,-0.17,-0.1619,-0.1613,-0.1559,-0.1457,-0.1415,-0.138,-0.1289,-0.1287,-0.1271,-0.1233,-0.1184,-0.1174,-0.1165,-0.1131,-0.112,-0.1263,-0.1263,-0.1263,0,-0.2005,-0.1914,-0.1891,-0.1826,-0.1788,-0.1781,-0.1714,-0.1676,-0.16,-0.1574,-0.1589,-0.146,-0.142,-0.1323,-0.1301,-0.1274,-0.1254,-0.1278,-0.1177,-0.1168,-0.116,-0.1127,-0.1115,-0.1261,-0.1262,-0.1262,-0.1262,0,-0.1888,-0.1826,-0.178,-0.1707,-0.1664,-0.1599,-0.1565,-0.1525,-0.1514,-0.1486,-0.1403,-0.1356,-0.1287,-0.1264,-0.1252,-0.1164,-0.1174,-0.1183,-0.121,-0.1147,-0.1116,-0.1103,-0.1259,-0.126,-0.126,-0.1261,0,0,-0.1805,-0.1719,-0.1703,-0.1669,-0.1602,-0.1553,-0.1488,-0.1421,-0.1386,-0.1335,-0.1278,-0.1192,-0.12,-0.1161,-0.1145,-0.1102,-0.1032,-0.1117,-0.1115,-0.1102,-0.0931,-0.0923,-0.0909,-0.1031,-0.1028,-0.1026,-0.0935,0,-0.172,-0.1604,-0.158,-0.1479,-0.142,-0.1412,-0.1355,-0.1308,-0.128,-0.1226,-0.1196,-0.1134,-0.1151,-0.1127,-0.1084,-0.1049,-0.0997,-0.1056,-0.0977,-0.0974,-0.099,-0.0893,-0.0884,-0.08,-0.0923,-0.0921,-0.0919,0,-0.1606,-0.1552,-0.1444,-0.1385,-0.1359,-0.1308,-0.1245,-0.1194,-0.114,-0.1123,-0.1079,-0.1068,-0.0999,-0.103,-0.0935,-0.0975,-0.0942,-0.092,-0.0916,-0.0907,-0.0942,-0.0879,-0.0773,-0.076,-0.09,-0.0902,-0.0903,0,-0.1554,-0.1454,-0.1376,-0.1348,-0.1277,-0.1241,-0.121,-0.1158,-0.1119,-0.1064,-0.1039,-0.0977,-0.0942,-0.0894,-0.0866,-0.0892,-0.0772,-0.0801,-0.0755,-0.0756,-0.0729,-0.0731,-0.0615,-0.071,-0.0711,-0.0711,-0.0711,0,-0.1462,-0.1396,-0.1352,-0.1304,-0.123,-0.1204,-0.1131,-0.11,-0.1054,-0.1,-0.099,-0.0939,-0.0906,-0.0851,-0.0829,-0.0752,-0.0737,-0.0721,-0.0716,-0.0721,-0.0723,-0.0698,-0.0702,-0.0707,-0.0708,-0.0709,-0.0709,0,-0.1391,-0.1358,-0.1273,-0.1213,-0.1196,-0.1144,-0.1093,-0.1046,-0.1018,-0.095,-0.0932,-0.0889,-0.0823,-0.0791,-0.071,-0.0695,-0.0608,-0.0607,-0.0626,-0.0623,-0.0579,-0.0583,-0.0441,-0.0421,-0.0531,-0.053,-0.0529,0,-0.1333,-0.1282,-0.1217,-0.118,-0.1147,-0.1088,-0.1048,-0.1021,-0.098,-0.0915,-0.0875,-0.0809,-0.0755,-0.065,-0.0611,-0.0548,-0.0545,-0.05,-0.0536,-0.0542,-0.0543,-0.0545,-0.054,-0.0493,-0.0492,-0.0491,-0.049,0,-0.1234,-0.122,-0.1164,-0.1101,-0.1054,-0.1004,-0.0954,-0.0924,-0.0889,-0.0843,-0.0776,-0.0734,-0.065,-0.0584,-0.0519,-0.0487,-0.0482,-0.048,-0.0465,-0.0469,-0.0482,-0.0473,-0.0607,-0.0482,-0.0483,-0.0484,-0.0484,-0.0485,-0.1166,-0.112,-0.1067,-0.1004,-0.0964,-0.0918,-0.087,-0.0837,-0.078,-0.071,-0.0698,-0.0625,-0.0573,-0.0485,-0.045,-0.0393,-0.0404,-0.0383,-0.0378,-0.0373,-0.037,-0.0492,-0.0382,-0.0382,-0.0382,-0.0382,-0.0382,0,-0.1065,-0.103,-0.0973,-0.0904,-0.0854,-0.0855,-0.08,-0.0758,-0.0695,-0.0646,-0.0593,-0.0515,-0.0451,-0.0407,-0.0343,-0.0305,-0.0302,-0.0289,-0.0291,-0.0283,-0.0365,-0.0383,-0.0293,-0.0293,-0.0293,-0.0293,-0.0293,-0.0293,-0.1007,-0.0929,-0.0909,-0.0811,-0.0776,-0.0706,-0.0674,-0.0631,-0.0592,-0.0506,-0.0452,-0.0425,-0.0378,-0.0309,-0.0251,-0.0239,-0.0215,-0.0202,-0.0191,-0.0268,-0.0278,-0.0286,-0.0303,-0.0198,-0.0198,-0.0114,-0.0113,-0.0113]}]]